クリステンセン彗星

451P/Christensen (2022)

English version
Home page
Updated on March 5, 2023

---------------------------------------------------------------------

・ プロフィール

符号 451P/2022 S2
検出日 2022年9月27日
検出光度 21.0等
検出者 Erwin Schwab (Egelsbach, Germany)

・ 写真集

・ 軌道要素

Epoch 2023 Feb. 25.0 TT = JDT 2460000.5
T 2022 Nov. 27.52940 TT                                 Rudenko
q   2.7985262            (2000.0)            P               Q
n   0.06175857     Peri.  186.69571     -0.59975300     -0.70279932
a   6.3387638      Node   300.91184     +0.75328572     -0.33460703
e   0.5585060      Incl.   26.48234     +0.26992027     -0.62778280
P  16.0
>From 148 observations 2006 Nov. 24-2023 Feb. 21, mean residual 0".8.

・ 光度変化

        m1 = 9.0 + 5 logΔ + 20.0 log r

---------------------------------------------------------------------

軌道要素はM.P.E.C. 2023-D72に掲載されたものです。
光度グラフはComet for Windowsで作成したものです。

---------------------------------------------------------------------

Copyright(C) Seiichi Yoshida (comet@aerith.net). All rights reserved.